Location: Antist
(43.1184°N, 0.1270°E)
Time: 22:52:14
(UTC+00:00)

STARLINK-1094 - Pass Details

Date: 19 January 2020
Orbit: 348 x 351 km, 53.0° (Epoch: 18 February)

Event Time Altitude Azimuth Distance (km) Brightness Sun altitude
Rises 18:19:25 0° 263° (W) 2,150 8.5 -15.4°
Reaches altitude 10° 18:21:37 10° 277° (W) 1,311 6.7 -15.8°
Maximum altitude 18:24:07 25° 336° (NNW) 748 4.4 -16.2°
Enters shadow 18:25:00 22° 6° (N) 838 4.4 -16.4°
